Back to catalog

YINHE-8

AliveCommunicationsSSO
NORAD 57424·PAYLOAD·🇨🇳 China
This satellite name has not been confirmed by official sources yet.

Launched Jul 23, 2023 from Taiyuan Satellite Launch Center

Loading…

Next Passes (next 24 hours)

TLE

FreshSource: Space-Track

Epoch: Sep 14, 2026, 15:43 UTC

1 57424U 23104A   26257.65546133  .00008824  00000-0  24916-3 0  9994
2 57424  97.2619 324.7280 0007996 144.9777 215.1994 15.36568959175779

Track YINHE-8 in real time with AllMySat

Download on the App Store